TimeCDT,TemperatureF,Dew PointF,Humidity,Sea Level PressureIn,VisibilityMPH,Wind Direction,Wind SpeedMPH,Gust SpeedMPH,PrecipitationIn,Events,Conditions,WindDirDegrees,DateUTC
12:15 AM,39.2,23.0,52,29.80,10.0,South,12.7,-,N/A,,Clear,170,2012-10-13 05:15:00
12:55 AM,37.4,24.8,60,29.79,10.0,SSE,9.2,-,N/A,,Clear,150,2012-10-13 05:55:00
1:14 AM,35.6,24.8,65,29.79,10.0,SSE,9.2,-,N/A,,Clear,150,2012-10-13 06:14:00
1:34 AM,37.4,24.8,60,29.78,10.0,SSE,10.4,-,N/A,,Clear,150,2012-10-13 06:34:00
1:55 AM,37.4,24.8,60,29.78,10.0,SE,11.5,-,N/A,,Clear,140,2012-10-13 06:55:00
2:14 AM,37.4,24.8,60,29.78,10.0,SSE,12.7,-,N/A,,Clear,150,2012-10-13 07:14:00
2:35 AM,37.4,24.8,60,29.77,10.0,SSE,11.5,-,N/A,,Clear,150,2012-10-13 07:35:00
2:55 AM,37.4,24.8,60,29.75,10.0,SSE,11.5,-,N/A,,Clear,160,2012-10-13 07:55:00
3:14 AM,37.4,24.8,60,29.73,10.0,SSE,12.7,-,N/A,,Clear,160,2012-10-13 08:14:00
3:35 AM,42.8,23.0,46,29.71,10.0,South,15.0,-,N/A,,Clear,170,2012-10-13 08:35:00
3:55 AM,44.6,23.0,43,29.71,10.0,South,17.3,-,N/A,,Clear,180,2012-10-13 08:55:00
4:14 AM,44.6,24.8,46,29.70,10.0,South,16.1,-,N/A,,Clear,180,2012-10-13 09:14:00
4:35 AM,42.8,26.6,53,29.70,10.0,South,9.2,-,N/A,,Clear,180,2012-10-13 09:35:00
4:55 AM,41.0,26.6,57,29.70,10.0,South,9.2,-,N/A,,Clear,170,2012-10-13 09:55:00
5:14 AM,39.2,26.6,61,29.69,10.0,South,9.2,-,N/A,,Clear,170,2012-10-13 10:14:00
5:55 AM,41.0,30.2,65,29.68,10.0,South,11.5,-,N/A,,Clear,180,2012-10-13 10:55:00
6:14 AM,41.0,30.2,65,29.68,10.0,South,12.7,-,N/A,,Clear,180,2012-10-13 11:14:00
6:35 AM,42.8,30.2,61,29.69,10.0,South,12.7,-,N/A,,Clear,190,2012-10-13 11:35:00
6:55 AM,41.0,32.0,70,29.69,10.0,South,11.5,-,N/A,,Clear,180,2012-10-13 11:55:00
7:14 AM,41.0,33.8,76,29.70,10.0,South,11.5,-,N/A,,Clear,190,2012-10-13 12:14:00
7:35 AM,39.2,33.8,81,29.69,10.0,South,11.5,-,N/A,,Clear,190,2012-10-13 12:35:00
7:55 AM,39.2,33.8,81,29.69,10.0,South,9.2,-,N/A,,Clear,190,2012-10-13 12:55:00
8:14 AM,39.2,33.8,81,29.68,10.0,South,10.4,-,N/A,,Clear,180,2012-10-13 13:14:00
8:55 AM,42.8,35.6,76,29.68,10.0,SSW,10.4,-,N/A,,Clear,200,2012-10-13 13:55:00
9:35 AM,44.6,37.4,76,29.68,10.0,SSW,12.7,-,N/A,,Clear,200,2012-10-13 14:35:00
9:55 AM,46.4,37.4,71,29.68,10.0,SSW,12.7,-,N/A,,Clear,210,2012-10-13 14:55:00
10:14 AM,46.4,37.4,71,29.68,10.0,SW,12.7,-,N/A,,Clear,220,2012-10-13 15:14:00
10:35 AM,48.2,39.2,71,29.68,10.0,SW,12.7,18.4,N/A,,Clear,220,2012-10-13 15:35:00
10:55 AM,50.0,37.4,62,29.68,10.0,SW,13.8,-,N/A,,Clear,220,2012-10-13 15:55:00
11:14 AM,50.0,37.4,62,29.68,10.0,SSW,11.5,-,N/A,,Clear,210,2012-10-13 16:14:00
11:35 AM,51.8,39.2,62,29.68,10.0,WSW,10.4,-,N/A,,Clear,240,2012-10-13 16:35:00
11:54 AM,51.8,37.4,58,29.67,10.0,WSW,6.9,-,N/A,,Clear,250,2012-10-13 16:54:00
12:15 PM,51.8,39.2,62,29.68,10.0,WSW,8.1,-,N/A,,Clear,250,2012-10-13 17:15:00
12:35 PM,53.6,39.2,58,29.68,10.0,WSW,4.6,-,N/A,,Clear,250,2012-10-13 17:35:00
12:54 PM,53.6,39.2,58,29.68,10.0,West,5.8,-,N/A,,Clear,260,2012-10-13 17:54:00
1:15 PM,53.6,39.2,58,29.68,10.0,Calm,Calm,-,N/A,,Clear,0,2012-10-13 18:15:00
1:35 PM,55.4,39.2,54,29.68,7.0,NW,8.1,-,N/A,,Clear,310,2012-10-13 18:35:00
1:54 PM,55.4,39.2,54,29.68,10.0,WNW,4.6,-,N/A,,Clear,300,2012-10-13 18:54:00
2:15 PM,55.4,37.4,51,29.68,10.0,NW,4.6,-,N/A,,Clear,310,2012-10-13 19:15:00
2:35 PM,57.2,39.2,51,29.68,10.0,NNW,8.1,-,N/A,,Clear,330,2012-10-13 19:35:00
2:54 PM,57.2,37.4,48,29.68,10.0,NW,6.9,-,N/A,,Clear,320,2012-10-13 19:54:00
3:15 PM,57.2,37.4,48,29.68,10.0,NNW,11.5,17.3,N/A,,Clear,340,2012-10-13 20:15:00
3:35 PM,57.2,37.4,48,29.69,10.0,NNW,11.5,16.1,N/A,,Clear,330,2012-10-13 20:35:00
3:54 PM,57.2,37.4,48,29.70,10.0,NNW,12.7,16.1,N/A,,Clear,340,2012-10-13 20:54:00
4:15 PM,57.2,37.4,48,29.71,10.0,North,11.5,17.3,N/A,,Clear,360,2012-10-13 21:15:00
4:35 PM,57.2,37.4,48,29.71,10.0,North,12.7,-,N/A,,Clear,350,2012-10-13 21:35:00
4:54 PM,57.2,35.6,44,29.71,10.0,North,12.7,-,N/A,,Clear,350,2012-10-13 21:54:00
5:15 PM,55.4,35.6,47,29.72,10.0,North,13.8,-,N/A,,Clear,350,2012-10-13 22:15:00
5:54 PM,53.6,35.6,51,29.73,10.0,NNW,15.0,-,N/A,,Clear,340,2012-10-13 22:54:00
6:15 PM,51.8,35.6,54,29.74,10.0,NNW,15.0,-,N/A,,Clear,340,2012-10-13 23:15:00
6:35 PM,48.2,35.6,62,29.76,10.0,NNW,10.4,-,N/A,,Clear,340,2012-10-13 23:35:00
6:54 PM,48.2,35.6,62,29.77,7.0,NNW,10.4,-,N/A,,Clear,340,2012-10-13 23:54:00
6:59 PM,48.2,35.6,62,29.77,5.0,NNW,12.7,-,N/A,,Haze,340,2012-10-13 23:59:00
7:35 PM,46.4,33.8,62,29.78,7.0,NNW,11.5,-,N/A,,Clear,340,2012-10-14 00:35:00
7:54 PM,44.6,33.8,66,29.79,10.0,NNW,10.4,-,N/A,,Clear,340,2012-10-14 00:54:00
9:15 PM,42.8,32.0,66,29.82,10.0,North,9.2,-,N/A,,Clear,360,2012-10-14 02:15:00
9:34 PM,41.0,32.0,70,29.82,10.0,North,11.5,-,N/A,,Clear,360,2012-10-14 02:34:00
9:54 PM,39.2,32.0,75,29.82,10.0,North,11.5,-,N/A,,Clear,350,2012-10-14 02:54:00
10:15 PM,39.2,30.2,70,29.84,10.0,North,10.4,-,N/A,,Clear,350,2012-10-14 03:15:00
11:15 PM,37.4,30.2,75,29.86,10.0,North,6.9,-,N/A,,Clear,360,2012-10-14 04:15:00
11:34 PM,37.4,30.2,75,29.86,10.0,North,8.1,-,N/A,,Clear,360,2012-10-14 04:34:00